CAPE
0 0 0 0 0 0 0 0 0 0 0 0 0 0 0 0 0 0 0 0 0 0
0 0 0 0 0 0 0 0 0 0 0 0 0 0 0 0 0 0 0 0 0 0
0 0 0 0 0 0 0 0 0 0 0 0 0 0 0 0 0 0 0 0 0 0
0 0 0 0 0 0 0 0 0 0 0 0 0 0 0 0 0 0 0 0 0 0
0 0 0 0 0 0 0 0 0 0 0 0 0 0 0 0 0 0 0 0 0 0
0 0 0 0 0 0 0 0 0 0 0 0 0 0 0 0 0 0 0 0 0 0
0 0 0 0 0 0 0 0 0 1 0 0 0 0 0 0 0 0 0 0 0 0
0 0 0 0 0 0 0 0 0 0 0 0 0 0 0 0 0 0 0 0 0 0
0 0 0 0 0 0 0 0 0 0 0 0 0 0 0 0 0 0 0 0 0 0
0 0 0 0 0 0 0 1 0 0 0 0 0 0 0 0 0 0 0 0 0 0
0 0 0 0 0 0 0 0 0 0 0 0 0 0 0 0 0 0 0 0 0 0
0 0 0 0 0 0 0 0 0 0 0 0 0 0 0 0 0 0 0 0 0 3
0 0 0 0 0 0 0 0 0 0 0 0 0 0 0 0 0 0 0 0 0 0
0 0 0 0 0 0 0 0 0 0 0 0 0 0 0 2 0 0 4 1 0 2
CIN
-0 -0 -0 -0 -0 -0 -0 -0 -0 -0 -0 -0 -0 -0 -0 -0 -0 -0 -0 -0 -0 -0
-0 -0 -0 -0 -0 -0 -0 -0 -0 -0 -0 -0 -0 -0 -0 -0 -0 -0 -0 -0 -0 -0
-0 -0 -0 -0 -0 -0 -0 -0 -0 -0 -0 -0 -0 -0 -0 -0 -0 -0 -0 -0 -0 -0
-0 -0 -0 -0 -0 -0 -0 -0 -0 -0 -0 -0 -0 -0 -0 -0 -0 -0 -0 -0 -0 -0
-0 -0 -0 -0 -0 -0 -0 -0 -0 -0 -0 -0 -0 -0 -0 -0 -0 -0 -0 -0 -0 -0
-0 -0 -0 -0 -0 -0 -0 -0 -0 -0 -30 -0 -0 -0 -0 -0 -0 -0 -0 -0 -0 -0
-0 -0 -0 -0 -0 -0 -0 -0 -0 -21 -0 -0 -0 -0 -0 -0 -0 -0 -0 -0 -0 -0
-0 -0 -0 -0 -0 -0 -0 -0 -0 -0 -0 -0 -0 -0 -0 -0 -0 -0 -0 -0 -0 -0
-0 -0 -0 -0 -0 -0 -0 -0 -0 -0 -0 -0 -0 -0 -0 -0 -0 -0 -0 -0 -0 -0
-0 -0 -0 -0 -0 -0 -0 -3 -0 -0 -0 -0 -0 -0 -0 -0 -0 -0 -0 -0 -0 -0
-0 -0 -0 -0 -0 -0 -0 -0 -0 -0 -0 -0 -0 -0 -0 -0 -0 -0 -0 -0 -0 -0
-0 -0 -0 -0 -0 -0 -0 -0 -0 -0 -0 -0 -0 -0 -0 -0 -0 -0 -0 -0 -0 -1
-0 -0 -0 -0 -0 -0 -0 -0 -0 -0 -0 -0 -0 -0 -0 -0 -0 -0 -0 -0 -0 -0
-0 -0 -0 -0 -0 -0 -0 -0 -0 -0 -0 -0 -0 -0 -0 -0 -0 -0 -0 -0 -0 -0
Wind_Speed
5 3 3 4 4 4 3 2 2 2 3 4 4 4 4 2 3 3 3 5 3 2
3 3 5 7 5 3 3 2 4 4 4 5 5 6 4 3 4 3 4 4 3 2
3 4 5 5 6 4 4 4 5 6 5 5 6 5 3 3 4 5 3 2 3 3
4 5 6 5 4 4 5 6 7 4 5 4 3 5 3 5 5 5 3 3 4 6
4 6 5 5 6 6 8 6 5 3 4 4 5 6 6 5 4 3 4 5 5 6
2 2 3 4 6 7 6 4 4 5 4 5 3 4 4 3 1 3 5 5 6 7
1 3 4 6 7 6 5 5 5 5 4 3 1 1 3 2 2 5 5 6 6 7
3 4 6 6 7 6 5 5 4 3 1 2 4 3 4 4 5 5 6 6 7 7
3 5 6 6 7 6 5 4 4 4 4 5 4 7 8 6 4 5 7 8 9 8
4 6 6 6 6 6 6 3 4 3 4 4 4 9 9 8 4 5 6 9 9 10
5 6 6 6 5 5 3 2 0 3 4 4 4 7 9 10 4 4 7 8 9 9
5 5 5 6 6 5 3 1 2 3 4 4 3 7 9 8 4 6 8 9 9 10
4 5 6 6 6 3 1 3 4 3 4 4 2 6 8 8 2 4 6 7 8 13
4 5 5 6 3 2 3 4 3 3 2 2 1 4 8 11 2 4 5 6 7 7
Wind_Direction
202 217 244 267 288 275 282 260 211 213 208 235 237 266 265 252 268 286 295 290 281 287
345 317 287 286 272 277 291 257 239 232 228 233 261 252 252 247 256 257 266 259 237 259
327 330 310 304 313 299 276 251 256 241 239 287 264 246 227 256 255 256 261 249 280 282
352 340 349 352 327 275 267 255 248 257 296 301 328 284 261 262 272 247 266 270 272 278
8 4 353 322 297 280 261 268 272 262 269 273 248 239 238 267 270 259 280 286 288 296
1 336 318 311 309 297 305 303 279 270 280 295 275 280 269 226 266 280 282 294 290 289
283 323 324 318 308 305 292 272 280 282 291 270 242 325 105 63 332 308 298 293 283 288
317 324 326 312 304 307 309 291 307 317 3 334 67 73 54 6 337 322 311 305 306 305
316 328 309 307 317 316 319 315 307 350 45 60 46 45 32 23 352 333 328 321 315 305
319 304 302 311 312 318 307 329 350 70 89 76 58 47 9 356 350 337 320 311 310 311
303 300 302 303 304 306 302 326 159 120 95 91 52 23 4 357 340 320 304 305 305 308
292 293 307 309 299 291 271 224 155 128 107 90 44 10 3 357 330 307 306 309 312 311
293 311 309 296 296 271 245 152 144 125 116 111 52 0 350 346 288 295 303 311 309 318
310 314 301 311 300 268 148 131 126 112 146 132 50 330 334 331 276 293 322 323 321 321